Zurück zum Katalog

SL-8 DEB

AktivLEO
NORAD 5225·DEBRIS·🇷🇺 Russia

Gestartet Dec 2, 1970 von Plesetsk Cosmodrome

Loading…

Nächste Überflüge (nächste 24 Stunden)

TLE

AktuellSource: Space-Track

Epoche: Sep 13, 2026, 06:51 UTC

1 05225U 70102D   26256.28596605  .00000278  00000-0  23411-3 0  9997
2 05225  74.0248 331.1840 0018273 264.8314 154.6860 13.92431269819345

Verfolge SL-8 DEB in Echtzeit mit AllMySat

Download on the App Store